Weather in To-shima

Japan     34°46′15″N   139°22′04″E
temp.,
°C
wind,
m/s
gust,
m/s
humid.,
%
clouds,
%
prec.,
mm/h
press.,
hPa
HPBL,
m
29 november, mon
mon2900:00+13nnw21451 0.0 10311162
03:00+13n32478 0.0 10301381
06:00+13n325013 0.0 1030982
09:00+13nw225198 0.0 1031729
12:00+14wsw34578 0.0 1029656
15:00+15wsw786142 0.0 10271162
18:00+15wsw685974 0.0 10281109
21:00+15wsw696151 0.0 10271308
30 november, tue
tue3000:00+16wsw79647 0.0 10271363
03:00+15wsw79572 0.0 1026901
06:00+15wsw57610 0.0 1025642
09:00+15wsw456287 0.1 1025549
12:00+17sw8105799 0.3 10231595
15:00+18ssw91057100 0.4 10201720
18:00+18s101359100 0.0 10171628
21:00+19s121472100 2.3 10161177
1 december, wed
wed100:00+20s151872100 2.5 10121671
03:00+19s172281100 5.4 10071586
06:00+19sw192393100 10.0 10031442
09:00+16wsw162180100 12.9 10031255
12:00+15wsw1722510 0.0 10001139
15:00+14wsw2025580 0.0 10011065
18:00+12wsw2225590 0.0 10031033
21:00+10wsw1820680 0.0 1005875
2 december, thu
thu200:00+10w1618640 0.0 1007863
03:00+10w1415590 0.0 1010861
06:00+10w77600 0.0 1013722
09:00+10nnw22500 0.0 1015731
12:00+11nne54501 0.0 1015851
15:00+13e24544 0.0 10161194
18:00+13w21540 0.0 1018938
21:00+13wsw77530 0.0 1019875
3 december, fri
fri300:00+12wsw9115810 0.0 1019947
03:00+13w9126298 0.0 10181238
06:00+13wsw10146079 0.0 10181134
09:00+13wsw11145845 0.0 10191178
12:00+14wsw111555100 0.0 10161310
15:00+15wsw12135144 0.0 10141038
18:00+15wsw1213550 0.0 1014927
21:00+15wsw1315580 0.0 1014969